Regional Weather Roundup
Issued by NWS Wakefield, VA

Home | Current Version | Previous Version | Graphics & Text | Print | Product List | Glossary On
Versions: 1 2 3 4 5 6 7 8 9 10 11 12 13 14 15 16 17 18 19 20 21 22 23 24 25 26 27
000
ASUS41 KAKQ 211914
RWRAKQ

REGIONAL WEATHER ROUNDUP
NATIONAL WEATHER SERVICE WAKEFIELD VA
300 PM EDT TUE MAR 21 2017

Note: "fair" indicates few or no clouds below 12,000 feet with no
significant weather and/or obstructions to visibility. * = Denotes
station may not report precipitation (e.g., rain,snow,etc.),
thunder or fog.

VAZ042-051-052>054-056-212000-
NORTHERN VIRGINIA

CITY           SKY/WX    TMP DP  RH WIND       PRES   REMARKS
WASH NATIONAL  PTSUNNY   60  42  51 VRB6      29.95F
DULLES         CLOUDY    58  40  51 NW12      29.95F
FORT BELVOIR   MOSUNNY   60  40  47 NW14G20   29.95F
QUANTICO       PTSUNNY   61  43  51 N8        29.96F
FREDERICKSBRG* SUNNY     60  44  54 NW9       29.94F
STAFFORD*      SUNNY     59  43  55 N9G16     29.99F
WARRENTON      MOSUNNY   62  40  44 NW8       29.95F
CULPEPER*      MOSUNNY   61  45  54 NE8       29.96F
MANASSAS*      MOSUNNY   60  43  53 N13       29.96F
LEESBURG*      CLOUDY    59  45  58 N10G18    29.96F
WINCHESTER     CLOUDY    54  39  58 N5        29.96F
FRONT ROYAL*   PTCLDY    59  45  58 NW8       29.95F
LURAY*         MOCLDY    61  46  59 CALM      29.95F
$$

VAZ048-049-060>072-079>083-212000-
CENTRAL AND SOUTH CENTRAL VIRGINIA

CITY           SKY/WX    TMP DP  RH WIND       PRES   REMARKS
RICHMOND       CLOUDY    64  44  48 N8        29.94F
CHESTERFIELD*  MOCLDY    66  36  32 NE3       29.95F
PETERSBURG*    CLOUDY    65  44  46 N5        29.95S
HANOVER        MOSUNNY   64  44  48 VRB3      29.96F
TAPPAHANNOCK*  MOSUNNY   60  31  33 N9        29.95F
QUINTON*       CLOUDY    64  44  49 N8        29.94S
CHARLOTTSVILLE CLOUDY    66  44  45 SE8       29.93F
GORDONSVILLE*  PTCLDY    62  46  55 NE7       29.94F
ORANGE*        MOSUNNY   59  45  58 N7        29.96F
LOUISA*        MOSUNNY   64  48  55 E7        29.93F
BUMPASS*       FAIR      60  44  56 NW5       29.95F
FARMVILLE*     CLOUDY    69  49  48 NE6       29.91F
CREWE*         FAIR      69  48  47 NE5       29.91F
FORT PICKETT*  CLOUDY    69  40  35 NE8       29.92F
CHASE CITY*    CLOUDY    71  47  43 CALM      29.90F
CLARKSVILLE*   CLOUDY    72  50  46 W3        29.91F
SOUTH HILL*    CLOUDY    71  53  52 N5        29.97F
LAWRENCEVILLE* CLOUDY    70  49  47 N8        29.91F
EMPORIA*       PTSUNNY   70  50  49 NW6       29.93F
$$

VAZ088>098-212000-
SOUTHEAST VIRGINIA

CITY           SKY/WX    TMP DP  RH WIND       PRES   REMARKS
NORFOLK        SUNNY     57  43  59 N16       29.94R
VIRGINIA BEACH MOSUNNY   61  43  51 N14       29.93R
NORFOLK NAVAL  MOSUNNY   59  42  53 NE14      29.95R
WEST POINT*    CLOUDY    63  43  47 NW8       29.95F
SALUDA*        FAIR      61  47  59 NW7       29.94F
NEWPORT NEWS   MOSUNNY   62  48  60 E13       29.93S
LANGLEY AFB    MOSUNNY   59  46  62 NE9       29.94R
FORT EUSTIS    MOSUNNY   70  47  44 VRB7      29.91S
WILLIAMSBURG*  MOSUNNY   72  48  43 NW7       29.94S
HR EXEC AP*    FAIR      68  46  45 N6        29.90S
FRANKLIN*      PTSUNNY   70  49  46 N9        29.92S
US460-WAKEFLD  CLOUDY    68  47  46 VRB5      29.93S
$$

VAZ020-022-025-037-045-212000-
WEST CENTRAL AND SOUTHWEST VIRGINIA

CITY           SKY/WX    TMP DP  RH WIND       PRES   REMARKS
STAUNTON*      CLOUDY    63  46  55 NE5       29.95F
WAYNESBORO*    PTCLDY    65  50  58 NE5       29.94F
HOT SPRINGS VA CLOUDY    50  46  87 W10G17    30.00F
LYNCHBURG      MOSUNNY   69  49  48 VRB6      29.93F
DANVILLE       CLOUDY    74  50  42 NW12G24   29.91F
SOUTH BOSTON*  MOCLDY    74  47  39 W9        29.90F
MARTINSVILLE   CLOUDY    74  47  39 N8        29.95F
ROANOKE        MOSUNNY   70  48  45 NW13      29.99F
BLACKSBURG     PTSUNNY   63  49  60 W12G17    30.03F
DUBLIN*        CLOUDY    63  49  61 W8        30.03F
MARION*        PTSUNNY   67  50  55 W7        30.03F
HILLSVILLE*    MOSUNNY   65  49  55 NW17G28   29.99F
RICHLANDS*     CLOUDY    62  47  58 CALM      30.04F
WISE*          MOSUNNY   64  45  48 CALM      30.04F
ABINGDON*      PTSUNNY   71  51  48 W6        30.01F
$$

MDZ021>025-VAZ099-100-212000-
SOUTHERN MARYLAND AND THE DELMARVA PENINSULA

CITY           SKY/WX    TMP DP  RH WIND       PRES   REMARKS
PATUXENT RIVER PTSUNNY   53  39  59 NE8       29.94F
BAY BRIDGE APT CLOUDY    55  37  50 N3        29.94F HAZE
LEONARDTOWN    MOSUNNY   55  37  50 NW8       29.95F
DOVER          PTSUNNY   56  44  63 NW8       29.91F
GEORGETOWN     CLOUDY    58  36  43 VRB3      29.92F
EASTON         PTSUNNY   57  37  47 N7G16     29.97F
CAMBRIDGE      SUNNY     55  37  50 N8        29.94F
SALISBURY      PTSUNNY   57  38  48 VRB7      29.92F
OCEAN CITY     CLOUDY    51  32  48 E7        29.94F
WALLOPS ISLAND CLOUDY    55  46  71 E7        29.93F
ACCOMACK*      CLOUDY    56  42  61 N9G16     29.93F
$$

NCZ012>017-030>032-212000-
NORTH CENTRAL AND EASTERN NORTH CAROLINA

CITY           SKY/WX    TMP DP  RH WIND       PRES   REMARKS
ROANOKE RAPIDS MOCLDY    72  52  49 NW6       29.91S
RALEIGH        MOSUNNY   78  47  33 NE6       29.90F
ELIZABETH CITY SUNNY     71  48  43 N7        29.90F
AHOSKIE*         N/A     71  50  46 N7        29.91S
EDENTON*       SUNNY     73  50  44 N8        29.91F
CURRITUCK*     SUNNY     69  46  43 NE9G16    29.91S
KILL DEVIL HLS NOT AVBL
MANTEO         SUNNY     65  44  45 NW9       29.91F
CAPE HATTERAS  SUNNY     65  54  67 W10       29.91F HAZE
TARBORO*       NOT AVBL
GOLDSBORO      SUNNY     80  50  35 NW7G17    29.89F
WASHINGTON     SUNNY     74  50  41 NW6       29.90F
GREENVILLE     SUNNY     77  50  38 SW6       29.92F
NEW BERN       SUNNY     78  51  38 VRB7      29.91F
WILMINGTON     SUNNY     82  52  35 NW12      29.91F
$$

VAZ048-212000-
ELSEWHERE

CITY           SKY/WX    TMP DP  RH WIND       PRES   REMARKS
HARRISBURG PA  MOSUNNY   57  38  48 NW16      29.91F
BALTIMORE      CLOUDY    61  41  47 NW13      29.92F
ANNAPOLIS      MOSUNNY   49  39  68 SE12      29.94F
ANDREWS AFB    MOSUNNY   57  39  49 NW10      29.93F
PHILADELPHIA   CLOUDY    56  34  43 SW10      29.90F
HENDERSON NC   SUNNY     72  46  38 NW6       29.91F
GREENSBORO     CLOUDY    79  53  40 W13G21    29.91F
ROCKY MOUNT    MOSUNNY   79  49  34 W13       29.90F
$$

VAZ100-212000-
MARINE

STATION/POSITION TIME  TEMP    WIND        PRES    WAVE   SWELL
                       AIR SEA DIR/SP/G            HT/PER HT/PER
                 (UTC) (F)     (DEG/KT/KT) (MB)    (FT/S) (FT/S)
CAPE MAY NJ      1848   47 43  310/  6/  7 1013.1F
LEWES DE         1848   47 43   CALM  /  1 1013.3F
OCEAN-CITY-INLET 1848   48 43   60/  5/  7 1014.2F
THOMAS POINT MD  1900   50 43  140/  6/  6   N/A
GOOSES REEF MD   1850   47      90/  4/  4 1014.9F
COVE POINT MD    1848   46      30/  6/  7 1014.7F
SOLOMONS ISLAND  1848   53 45  340/  1/  3   N/A
BISHOPS HEAD MD  1848   53 47   40/  6/  8 1014.1F
POTOMAC MD       1850   49      30/ 12/ 14 1013.5F
CAMBRIDGE MD     1848   52 42  300/  9/ 11 1013.2F
LEWISETTA VA     1842   54 47   50/  3/  6 1014.0F
RAPPAHANNOCK LGT 1848          350/ 17/ 18 1014.4F
STINGRAY PT      1850   48      50/ 16/ 19 1013.9F
YORK RVR RNG VA  1842   49      70/ 17/ 18 1013.1F
YORKTOWN VA      1842   52 46  100/ 11/ 13 1013.3F
JAMESTOWN VA     1850   63     350/  4/  8   N/A
DOMINION TERM VA 1842   59      50/  3/  6 1013.8R
KIPTOPEKE VA     1848      46  360/ 13/ 16   N/A
CHES BAY BRIDGE  1842   50 46   10/ 13/ 15 1013.8S
CAPE HENRY VA    1842   51     330/ 15/ 16   N/A
WILLOUBY STN VA  1842   50      40/ 15/ 16 1014.8R
S CRANEY ISL VA  1842   56      40/ 15/ 17 1013.5R
CAPE HENRY BUOY  1842      49                N/A     3/12   2/12
OFFSHORE WE BUOY 1851      50                N/A     4/11   2/11
64NM E OF VA BCH 1850   53 51  260/  8/ 10 1012.6F   6/11   5/11
DUCK PIER NC     1848   61 47  250/  6/  8 1012.1F
44100 DUCK FRF   1835      49                N/A     4/11   3/11
44056 DUCK FRF   1830      49                N/A     4/11   2/11
OREGON INLET NC  1842   56 49  200/  6/  7 1012.4F
HATTERAS NC      1848   65 54  230/ 11/ 16 1012.4F
DIAMOND SHLS NC  1850   64 70  250/ 17/ 25 1012.7F   6/12   5/12
CAPE LOOKOUT NC  1800   63     230/ 11/ 15 1013.7F
$$




USA.gov is the U.S. government's official web portal to all federal, state and local government web resources and services.